Regional Weather Roundup
Issued by NWS San Diego, CA

Home | Current Version | Previous Version | Text Only | Print | Product List | Glossary On
Versions: 1 2 3 4 5 6 7 8 9 10 11 12 13 14 15 16 17 18 19 20 21 22 23 24 25 26 27 28 29 30 31 32 33 34 35 36 37 38 39 40 41 42 43 44 45 46 47 48 49 50
000
ASUS46 KSGX 182010
RWRSGX

SAN DIEGO HOURLY WEATHER ROUNDUP
NATIONAL WEATHER SERVICE SAN DIEGO CA
100 PM PDT THU SEP 18 2014

NOTE: "FAIR" INDICATES FEW OR NO CLOUDS BELOW 12,000 FEET WITH NO
SIGNIFICANT WEATHER AND/OR OBSTRUCTIONS TO VISIBILITY.

CAZ042-043-060-061-PZZ750-775-182100-

GREATER SAN DIEGO AREA

CITY           SKY/WX    TMP DP  RH WIND       PRES   REMARKS
LINDBERGH FLD  MOSUNNY   78  65  63 NW13      29.88F
POINT LOMA       N/A     76  64  67 W17         N/A
NATIONAL CITY    N/A     80  70  72 SW7       29.87F
CHULA VISTA      N/A     79  69  73 W12       29.80F
IMPERIAL BEACH MOSUNNY   78  67  68 NW15      29.87F
BROWN FIELD    SUNNY     79  66  64 W9G18     29.87F
MIRAMAR MCAS   MOSUNNY   81  62  52 NW10      29.87F
MONTGOMERY FLD SUNNY     79  64  60 W9        29.87F

$$

NORTH SAN DIEGO COUNTY

CITY           SKY/WX    TMP DP  RH WIND       PRES   REMARKS
CAMP PENDLETON MOSUNNY   78  62  57 SW14      29.85F
OCEANSIDE AP   SUNNY     80  64  58 SW12      29.86F
OCEANSIDE HBR    N/A     74  67  79 W7        29.89F
VISTA            N/A     78  65  63 W5        29.85F
CARLSBAD       SUNNY     76  63  64 W9        29.87F
DEL MAR          N/A     79  68  69 CALM      29.89F
FALLBROOK        N/A     81  65  58 SW5       29.85F
ESCONDIDO        N/A     84  63  49 SW3       29.86F
SAN MARCOS       N/A     79  63  56 SW7       29.84F
POWAY            N/A     85  65  51 N3        29.85F

$$

EAST SAN DIEGO COUNTY

CITY           SKY/WX    TMP DP  RH WIND       PRES   REMARKS
RAMONA         SUNNY     81  59  47 SW9       29.89F
SANTEE LAKES     N/A     83  65  53 W3        29.85F
LA MESA          N/A     80  68  67 NW13      29.79F
JAMUL            N/A     81  67  62 W6        29.82F
DESCANSO N       N/A     80  56  43 W13       29.72F
MT. LAGUNA OBS   N/A     69  30  23 NW10      29.67F
CAMPO            N/A     82  54  37 SW14G23   29.88F

$$

ORANGE COUNTY AND THE LOS ANGELES BASIN

CITY           SKY/WX    TMP DP  RH WIND       PRES   REMARKS
JOHN WAYNE AP  MOSUNNY   80  64  58 SW8       29.87F
LAGUNA BEACH     N/A     78  68  71 S8        29.83F
LAKE FOREST FR   N/A     82  61  49 CALM      29.75F
SANTA ANA        N/A     81  69  65 CALM      29.81F
HUNTINGTON BCH   N/A     77  69  75 SW3       29.90F
LOS ALAMITOS   MOSUNNY   78  65  64 SW9       29.87F
FULLERTON      MOSUNNY   81  63  54 SW6       29.85F
LONG BEACH     SUNNY     81  66  60 SW9       29.86F
L.A. AP        MOSUNNY   75  64  68 SW9       29.88F
L.A. DOWNTOWN  SUNNY     78  62  57 W8        29.86F

$$

THE INLAND EMPIRE

CITY           SKY/WX    TMP DP  RH WIND       PRES   REMARKS
CORONA         SUNNY     83  61  47 W15       29.85F
CHINO          MOSUNNY   84  60  44 W12G20    29.87F
ONTARIO        MOSUNNY   82  58  43 W9G20     29.87F
SAN BERNARDINO SUNNY     82  52  34 SW6       29.87F
RIVERSIDE AP   SUNNY     83  58  42 MISG      29.86F
RIV CYN CREST    N/A     80  66  61 W2        29.85F
MORENO VALLEY    N/A     83  61  46 S5        29.05F
MARCH ARB      MOSUNNY   83  57  41 NW10      29.88F
HORSETHIEF CYN   N/A     82  56  39 N5        29.84F
PERRIS           N/A     83  60  45 NW3       29.85F
MENIFEE          N/A     85  62  46 W2        29.92F
HEMET EAST       N/A     82  50  32 CALM      29.82F
FRENCH VALLEY  FAIR      82  59  44 SW3       29.88F
TEMECULA         N/A     84  62  47 SW7       29.85S

$$

SAN BERNARDINO AND RIVERSIDE COUNTY MOUNTAINS

CITY           SKY/WX    TMP DP  RH WIND       PRES   REMARKS
BIG BEAR AP    SUNNY     70  19  14 W13G18    30.14F
ANGELUS OAKS     N/A     72  48  42 W3        29.69F
PINE COVE        N/A     68  33  26 W3        29.71F

$$

SOUTHERN DESERT INCLUDING THE COACHELLA VALLEY

CITY           SKY/WX    TMP DP  RH WIND       PRES   REMARKS
PALM SPRINGS   SUNNY    101  49  17 VRB5      29.71F HX  98
THOUSAND PALMS   N/A     99  54  21 NE6       29.66F HX  97
PALM DESERT      N/A    103  57  21 SE1         N/A  HX 103
THERMAL        SUNNY    104  49  15 N9        29.64F HX 101
BLYTHE         SUNNY    100  66  32 S12G21    29.68F HX 104
IMPERIAL AP    SUNNY    103  42  12 VRB5G16   29.66F HX  98
EL CENTRO NAS  MOSUNNY  106  39  10 VRB7      29.66F HX 100
YUMA AZ        MOSUNNY  101  61  26 SW9       29.68F HX 102
MEXICALI       MOSUNNY  102  41  12 W7        29.69  HX  97

$$

UPPER DESERT

CITY           SKY/WX    TMP DP  RH WIND       PRES   REMARKS
VICTORVILLE AP SUNNY     88  43  20 W20G28    29.86F
HESPERIA         N/A     83  48  28 SW20      29.84F
APPLE VALLEY     N/A     84  47  27 SW16G26   29.95F
PALMDALE       SUNNY     83  53  35 SW16G29   29.89F
LANCASTER      SUNNY     83  53  35 SW20G30   29.87F
EDWARDS AFB    MOSUNNY   87  50  27 SW21G30   29.83F
DAGGETT        SUNNY     95  34  11 W15G23    29.79F
29 PALMS N     SUNNY     95  43  16 N7        29.84F
NEEDLES        MOSUNNY   99  60  27 CALM      29.71F HX  99

$$

REGIONAL REPORTS

CITY           SKY/WX    TMP DP  RH WIND       PRES   REMARKS
SANTA BARBARA  SUNNY     78  63  59 W10G21    29.84F
SANDBERG       SUNNY     79  50  36 SE13      30.00F
MT. WILSON       N/A     72  54  53 MISG        N/A
LAS VEGAS NV   MOSUNNY   97  38  13 S20G28    29.72F
PHOENIX AZ     MOSUNNY   92  62  36 CALM      29.74F
TIJUANA        SUNNY     79  63  57 W9        29.89F

$$

OFFSHORE ISLANDS

CITY           SKY/WX    TMP DP  RH WIND       PRES   REMARKS
CATALINA ARPT  CLOUDY    67  62  84 W10       29.93F
SAN NICOLAS IS PTSUNNY   68  59  73 NW15      29.90F

$$

MARINE AND OFFSHORE BUOY REPORTS

STATION/POSITION SKY/WX   TEMP    WIND        PRES    SWELL
                          AIR SEA DIR/SP/G            HT/PER/DIR
                          (F)     (DEG/KT/KT) (MB)    (FT/S/D)
TANNER BANKS               69 70  280/ 10/ 12 1012.6F
S CLEMENTE BASIN           71 74  310/ 12/ 16 1012.0F   5/220/16
SAN NICOLAS IS.               68                N/A     5/280/13
SO. S. ROSA ISLA           68 70  300/ 10/ 12 1011.6F   7/ 9
W. S. BARBARA CH           63 61  290/  8/ 10 1011.0F   7/270/ 9
M. S. BARBARA CH           66 66  260/ 14/ 16 1011.4F
S. MONICA BASIN            70 72  270/ 12/ 14 1011.2F   3/170/16
S PEDRO CHANNEL               72                N/A     3/200/17
DANA POINT                    70                N/A     3/200/15
CMP PENDLETON NS              72                N/A     3/220/17
OCEANSIDE OFFSHR              74                N/A     3/210/17
TORREY PINES OTR              74                N/A     3/200/17
LA JOLLA 1                 73 71  330/  6/  7 1011.8F
MISSION BAY BUOY              74                N/A     3/200/17
SAN DIEGO BAY                 77              1012.1F

$$



USA.gov is the U.S. government's official web portal to all federal, state and local government web resources and services.